Showing default

S-NET B, 43187

Orbit data source: Space-Track

S-NET B, 43187 is a payload satellite owned by TUB (DE) in SSO that was launched on Thu, 01 Feb 2018 UTC via a SOYUZ-2-1A launch vehicle from the Vostochny Cosmodrome (VOSTO). Payload-class satellites include a variety of spacecraft equipped with specific instruments for various scientific and technological missions. These include communications satellites like Starlink; space stations such as the ISS; scientific satellites like the Hubble; Earth observation satellites from companies like Planet Labs, Umbra, and HawkEye 360; GPS; miniature CubeSats for education and research; and military/defense satellites.

Loading next visibility...
Identifier
43187, 2018-014H
Orbit
SSO
Country
Flag of DEDE / GER
Related business
Manufacturer
TUB
Mission
Operational Commercial Com/Tech
Bus & Motor
TUBIX10, Unknown motor
Mass
8 kg wet, 8 kg dry
Launch date (UTC)
2018-02-01 (8 years ago)
Launch vehicle
SOYUZ-2-1A
Launch site
Vostochny Cosmodrome (VOSTO)
Object type
Payload
Rocket body
Debris
Shape & HBR
Box, 0.1 m
Radar Cross Section
0.086 m², Medium (>0.1 m² and < 1m²)

Expand to show TLE details & history
Last TLE update: 18 hours ago

TLE from 18 hours ago
0 S-NET B
1 43187U 18014H   25260.15520400  .00005197  00000-0  29994-3 0  9997
2 43187  97.5507 162.0195 0007978 231.0666 128.9854 15.12754799417422
Epoch: 2025-09-17T03:43Z
TLE epoch observation values (Epoch: 2025-09-17T03:43:29.625Z)
Latitude
-0.00006°
Longitude
109.81086°
Altitude
534.349 km
Speed
7.594 km/s
True Right ascension
10h 48m 04s
True Declination
0° 00' 00"
Sunlit
Object was in daylight at epoch
Visualization orbit readout
Latitude
Unknown
Longitude
Unknown
Altitude
Unknown
Speed
Unknown
Apparent Right ascension
Unknown
Apparent Declination
Unknown
Sunlit
N/A
Visualization observer readout
Local Sidereal Time
14:51:41
Azimuth
Unknown
Elevation
Unknown
Doppler factor
Unknown
Orbital elements
Apogee altitude
530.292 km
Perigee altitude
519.278 km
Semi-major axis
6,902.922 km
Eccentricity
0.0008
Inclination
97.5507°
RAAN
162.0195°
Arg. of periapsis
231.0666°
True anomaly
129.05642°
Mean anomaly
128.9854°
Eccentric anomaly
129.02091°
Mean motion
3.78437 °/min
Orbital period
95.13 mins
BSTAR
0.00029994
Loading maneuver chart data...
Computing Atmospheric mass density...
Loading historical data...
Loading historical data...
Loading historical data...
Loading historical data...
Loading historical data...
Loading historical data...
Loading historical data...

Documentation

Showing up to 5 results
|